EW7705 Weather Reports


Display with metric or nautical units.
time (UTC)temp
F
wind
direction
speed
MPH
gust
MPH
rain 1hr
in
rain 24hr
in
rain mn
in
humidity
%
barometer
mb
20181120211539 43 253 2.0 5.0 0.00 0.09 0.00 96 1014.5
20181120210530 43 294 3.0 6.0 0.00 0.09 0.00 96 1014.5
20181120205527 43 270 2.0 6.0 0.00 0.09 0.09 95 1014.5
20181120204518 43 282 3.0 5.0 0.00 0.09 0.09 95 1014.5
20181120203604 43 282 3.0 6.0 0.00 0.09 0.09 95 1014.5
20181120202602 43 276 3.0 8.0 0.00 0.09 0.09 95 1014.5
20181120201552 43 283 3.0 6.0 0.00 0.09 0.09 94 1014.5
20181120200549 43 286 2.0 4.0 0.00 0.09 0.09 94 1014.5
20181120195540 43 268 2.0 5.0 0.00 0.09 0.09 94 1014.5
20181120194537 43 257 3.0 6.0 0.00 0.09 0.09 94 1014.5
20181120193528 44 293 2.0 6.0 0.00 0.09 0.09 94 1014.5
20181120192525 44 294 3.0 6.0 0.00 0.09 0.09 94 1014.5
20181120191606 44 277 3.0 6.0 0.00 0.09 0.09 93 1014.5
20181120190603 44 265 3.0 6.0 0.00 0.09 0.09 93 1014.5
20181120185554 44 284 4.0 12.0 0.00 0.09 0.09 93 1014.5
20181120184551 44 304 4.0 9.0 0.00 0.09 0.09 93 1014.5
20181120183543 44 264 3.0 7.0 0.00 0.09 0.09 93 1014.5
20181120182539 44 259 4.0 9.0 0.00 0.09 0.09 93 1014.5
20181120181530 44 290 3.0 8.0 0.00 0.09 0.09 93 1014.5
20181120180527 44 242 2.0 6.0 0.00 0.09 0.09 92 1014.5
20181120175518 44 230 4.0 9.0 0.00 0.09 0.09 92 1014.5
20181120174606 44 280 2.0 5.0 0.00 0.09 0.09 91 1014.5
20181120173603 44 285 4.0 9.0 0.00 0.09 0.09 91 1014.5
20181120172553 44 296 2.0 7.0 0.00 0.09 0.09 91 1014.5
20181120171550 44 240 4.0 8.0 0.00 0.09 0.09 91 1014.5
20181120170541 44 292 4.0 7.0 0.00 0.09 0.09 91 1014.5
20181120165538 44 321 3.0 7.0 0.00 0.09 0.09 91 1014.5
20181120164529 44 247 3.0 7.0 0.00 0.09 0.09 92 1014.5
20181120163526 44 277 2.0 6.0 0.00 0.09 0.09 92 1014.5
20181120162518 45 268 3.0 8.0 0.00 0.09 0.09 92 1014.5
20181120161605 45 299 2.0 6.0 0.00 0.09 0.09 92 1014.5
20181120160602 45 243 1.0 3.0 0.00 0.09 0.09 92 1014.5
20181120155553 45 268 1.0 3.0 0.00 0.09 0.09 92 1014.5
20181120154550 45 271 1.0 3.0 0.00 0.09 0.09 91 1014.5
20181120153605 45 265 1.0 4.0 0.00 0.09 0.09 91 1014.5
20181120152602 45 298 1.0 4.0 0.00 0.09 0.09 91 1014.5
20181120151552 45 279 2.0 4.0 0.00 0.09 0.09 91 1014.5
20181120150549 45 270 2.0 4.0 0.00 0.09 0.09 91 1014.5
20181120145540 45 242 0.0 3.0 0.00 0.09 0.09 90 1014.5
20181120144537 46 315 2.0 5.0 0.00 0.09 0.09 89 1014.5
20181120143528 46 260 3.0 7.0 0.00 0.09 0.09 89 1014.5
20181120142525 46 287 1.0 5.0 0.00 0.09 0.09 88 1014.5
20181120141606 46 305 1.0 4.0 0.00 0.09 0.09 87 1014.5
20181120140603 46 290 3.0 7.0 0.00 0.09 0.09 87 1014.5
20181120135554 47 302 4.0 12.0 0.00 0.09 0.09 87 1014.5
20181120134551 47 287 4.0 9.0 0.00 0.09 0.09 87 1014.5
20181120133542 47 280 4.0 9.0 0.00 0.09 0.09 86 1014.5
20181120132539 47 290 3.0 8.0 0.00 0.09 0.09 86 1014.5
20181120131530 47 324 3.0 11.0 0.00 0.09 0.09 86 1014.5
20181120130527 48 278 3.0 9.0 0.00 0.09 0.09 85 1014.5
20181120125518 48 293 3.0 9.0 0.00 0.09 0.09 84 1014.5
20181120124606 48 293 4.0 9.0 0.00 0.09 0.09 84 1014.5
20181120123603 49 308 3.0 7.0 0.00 0.09 0.09 84 1014.5
20181120122554 49 297 3.0 9.0 0.00 0.09 0.09 84 1014.5
20181120121550 50 319 3.0 6.0 0.00 0.09 0.09 83 1014.5
20181120120542 50 268 3.0 6.0 0.00 0.09 0.09 83 1014.5
20181120115539 50 315 3.0 8.0 0.00 0.09 0.09 82 1014.5
20181120114530 50 306 3.0 8.0 0.00 0.09 0.09 80 1014.5
20181120113527 51 322 5.0 9.0 0.00 0.09 0.09 81 1014.5
20181120112519 51 315 4.0 8.0 0.00 0.09 0.09 83 1014.5
20181120105021 52 317 4.0 11.0 0.00 0.09 0.09 83 1014.5
20181120104018 52 269 5.0 11.0 0.00 0.09 0.09 84 1014.5
20181120103115 52 282 5.0 10.0 0.00 0.09 0.09 85 1014.5
20181120102112 52 290 5.0 9.0 0.00 0.09 0.09 86 1014.5
20181120101109 53 270 4.0 10.0 0.00 0.09 0.09 88 1014.5
20181120100105 52 250 4.0 11.0 0.00 0.09 0.09 92 1014.5
20181120095102 52 300 5.0 10.0 0.00 0.09 0.09 95 1014.5
20181120094101 52 225 6.0 12.0 0.01 0.09 0.09 97 1014.5
20181120093056 52 275 5.0 9.0 0.01 0.09 0.09 98 1014.5
20181120092053 51 289 7.0 11.0 0.01 0.09 0.09 98 1014.5
20181120091050 52 289 6.0 12.0 0.01 0.09 0.09 98 1014.5
20181120090047 52 290 4.0 9.0 0.01 0.09 0.09 98 1014.5
20181120085044 53 247 5.0 11.0 0.01 0.09 0.09 98 1014.5
20181120084041 53 182 3.0 6.0 0.00 0.08 0.08 98 1014.5
20181120083038 53 204 3.0 8.0 0.00 0.08 0.08 98 1014.5
20181120082034 52 216 3.0 9.0 0.00 0.08 0.08 98 1014.5
20181120081031 52 210 5.0 9.0 0.00 0.08 0.08 98 1014.5
20181120080028 52 180 5.0 12.0 0.03 0.08 0.08 98 1014.5
20181120075025 51 172 3.0 9.0 0.03 0.08 0.08 98 1014.5
20181120074022 50 151 5.0 15.0 0.03 0.08 0.08 99 1014.5
20181120073019 49 180 3.0 9.0 0.03 0.08 0.08 99 1014.5
20181120072016 47 149 0.0 3.0 0.03 0.08 0.08 99 1014.5
20181120071113 46 177 0.0 3.0 0.03 0.08 0.08 98 1014.5
20181120070110 45 176 1.0 4.0 0.00 0.04 0.04 97 1014.5
20181120065107 44 141 0.0 3.0 0.00 0.04 0.04 97 1014.5
20181120064104 44 168 0.0 2.0 0.00 0.04 0.04 98 1014.5
20181120063101 43 95 1.0 4.0 0.00 0.04 0.04 98 1014.5
20181120062058 42 126 1.0 4.0 0.00 0.04 0.04 98 1014.5
20181120061054 42 138 2.0 6.0 0.00 0.04 0.04 98 1014.5
20181120060052 42 105 1.0 4.0 0.00 0.04 0.04 99 1014.5
20181120055048 42 72 1.0 3.0 0.00 0.04 0.04 99 1014.5
20181120054045 42 100 1.0 4.0 0.00 0.04 0.04 99 1014.5
20181120053042 42 79 1.0 3.0 0.00 0.04 0.04 99 1014.5
20181120052039 42 84 1.0 3.0 0.00 0.04 0.04 99 1014.5
20181120051036 41 113 2.0 5.0 0.00 0.04 0.04 99 1014.5
20181120050034 41 120 1.0 4.0 0.00 0.04 0.04 99 1014.5
20181120045032 41 90 1.0 3.0 0.00 0.04 0.04 99 1014.5
20181120044028 41 96 1.0 5.0 0.00 0.04 0.04 99 1014.5
20181120043024 41 78 2.0 7.0 0.00 0.04 0.04 99 1014.5
20181120042022 41 55 3.0 6.0 0.00 0.04 0.04 99 1014.5
20181120041018 41 83 2.0 6.0 0.00 0.04 0.04 99 1014.5
20181120040116 41 106 2.0 4.0 0.00 0.04 0.04 99 1014.5
20181120035112 41 88 2.0 6.0 0.00 0.04 0.04 99 1014.5
20181120034108 41 101 1.0 4.0 0.00 0.04 0.04 99 1014.5
20181120033105 41 116 2.0 6.0 0.00 0.04 0.04 99 1014.5
20181120032102 40 65 3.0 8.0 0.00 0.04 0.04 99 1014.5
20181120031059 40 109 3.0 9.0 0.00 0.04 0.04 99 1014.5
20181120030056 40 87 5.0 9.0 0.00 0.04 0.04 99 1014.5
20181120025053 40 113 4.0 12.0 0.00 0.04 0.04 99 1014.5
20181120024050 40 107 5.0 9.0 0.01 0.04 0.04 99 1014.5
20181120023047 40 119 4.0 9.0 0.01 0.04 0.04 99 1014.5
20181120022044 40 90 3.0 6.0 0.01 0.04 0.04 99 1014.5
20181120021041 40 97 3.0 7.0 0.01 0.04 0.04 99 1014.5
20181120020038 40 80 3.0 6.0 0.01 0.04 0.04 99 1014.5
20181120015035 40 94 2.0 6.0 0.01 0.04 0.04 99 1014.5
20181120014032 40 83 3.0 6.0 0.00 0.03 0.03 99 1014.5
20181120013029 40 113 3.0 6.0 0.00 0.03 0.03 99 1014.5
20181120012026 40 101 2.0 5.0 0.00 0.03 0.03 99 1014.5
20181120011022 40 44 2.0 6.0 0.00 0.03 0.03 99 1014.5
20181120010020 40 106 3.0 8.0 0.00 0.03 0.03 99 1014.5
20181120005017 41 84 1.0 5.0 0.01 0.03 0.03 99 1014.5
20181120004114 41 176 2.0 4.0 0.01 0.03 0.03 99 1014.5
20181120003110 41 132 2.0 5.0 0.01 0.03 0.03 98 1014.5
20181120002107 41 98 2.0 6.0 0.01 0.03 0.03 98 1014.5
20181120001104 41 78 3.0 8.0 0.01 0.03 0.03 98 1014.5
20181120000101 41 144 2.0 4.0 0.01 0.03 0.03 98 1014.5
20181119235058 41 112 3.0 7.0 0.01 0.02 0.02 97 1014.5
20181119234055 41 52 2.0 6.0 0.01 0.02 0.02 97 1014.5
20181119233052 41 38 0.0 3.0 0.02 0.02 0.02 96 1014.5
20181119232049 41 32 1.0 3.0 0.02 0.02 0.02 96 1014.5
20181119231046 41 344 1.0 3.0 0.02 0.02 0.02 95 1014.5
20181119230043 41 13 0.0 3.0 0.02 0.02 0.02 95 1014.5
20181119225040 41 45 0.0 2.0 0.01 0.01 0.01 95 1014.5
20181119224037 42 22 0.0 2.0 0.01 0.01 0.01 94 1014.5
20181119223034 42 347 0.0 2.0 0.00 0.00 0.00 94 1014.5
20181119222031 42 333 0.0 3.0 0.00 0.00 0.00 94 1014.5
20181119221027 42 87 1.0 3.0 0.00 0.00 0.00 94 1014.5
20181119220024 42 96 2.0 7.0 0.00 0.00 0.00 94 1014.5
20181119215021 42 91 2.0 6.0 0.00 0.00 0.00 94 1014.5
20181119214018 42 108 2.0 6.0 0.00 0.00 0.00 95 1014.5
20181119213015 42 55 1.0 4.0 0.00 0.00 0.00 95 1014.5
20181119212112 42 82 1.0 4.0 0.00 0.00 0.00 94 1014.5